Weather History for Taylorville, IL

Change the Weather History Date:

Friday, October 21, 2011

  Actual Average (KSPI) Record (KSPI)
Temperature  
Mean Temperature 46 °F 54 °F  
Max Temperature 60 °F 64 °F 89 °F (1979)
Min Temperature 33 °F 43 °F 25 °F (1930)
Degree Days  
Heating Degree Days 18 12  
Month to date heating degree days 193  
Since 1 July heating degree days 274  
Cooling Degree Days 0 0  
Month to date cooling degree days 19  
Year to date cooling degree days 1118  
Moisture  
Dew Point 34 °F    
Average Humidity 65    
Maximum Humidity 87    
Minimum Humidity 34    
Precipitation  
Precipitation 0.00 in 0.11 in 1.99 in (1983)
Month to date precipitation 2.11  
Year to date precipitation 30.66  
Snow  
Snow 0.00 in 0.00 in T in (1937)
Month to date snowfall 0.0  
Since 1 July snowfall 0.0  
Since 1 September snowfall 0.0  
Snow Depth -    
Sea Level Pressure  
Sea Level Pressure 30.07 in    
Wind  
Wind Speed 8 mph (West)    
Max Wind Speed 13 mph    
Max Gust Speed 18 mph    
Visibility 10 miles    
Events      
T = Trace of Precipitation, MM = Missing Value Source: NWS Daily Summary

Daily Weather History Graph

Daily Weather History Graph

Search for Another Location

Airport:

Trip Planner

Search our weather history database for the weather conditions in past years. The results will help you decide how hot, cold, wet, or windy it might be!

Date:

Astronomy

Oct. 21, 2011 Rise Set
Actual Time 7:13 AM CDT 6:09 PM CDT
Civil Twilight 6:45 AM CDT 6:37 PM CDT
Nautical Twilight 6:14 AM CDT 7:08 PM CDT
Astronomical Twilight 5:43 AM CDT 7:39 PM CDT
Moon 1:04 AM CDT (10/21) 2:53 PM CDT (10/21)
Length of Visible Light 11h 51m
Length of Day
10h 56m
Waning Crescent, 33% of the Moon is Illuminated
Oct 21
Waning Crescent
Oct 26
New
Nov 2
First Quarter
Nov 10
Full
Nov 18
Last Quarter

Hourly Weather History & Observations

Time (CDT) Temp. Windchill Dew Point Humidity Pressure Visibility Wind Dir Wind Speed Gust Speed Precip Events Conditions
12:15 AM 37.4 °F 32.1 °F 33.8 °F 87% 29.97 in 10.0 mi SW 6.9 mph - N/A   Clear
12:35 AM 37.4 °F 30.8 °F 33.8 °F 87% 29.97 in 10.0 mi WSW 9.2 mph - N/A   Clear
12:55 AM 39.2 °F 32.5 °F 33.8 °F 81% 29.97 in 10.0 mi WSW 10.4 mph - N/A   Clear
1:15 AM 39.2 °F 32.0 °F 33.8 °F 81% 29.98 in 10.0 mi West 11.5 mph - N/A   Clear
1:35 AM 37.4 °F 30.3 °F 33.8 °F 87% 29.98 in 10.0 mi West 10.4 mph - N/A   Clear
1:55 AM 37.4 °F 30.8 °F 33.8 °F 87% 29.98 in 10.0 mi West 9.2 mph - N/A   Clear
2:15 AM 37.4 °F 30.8 °F 32.0 °F 81% 29.99 in 10.0 mi West 9.2 mph - N/A   Clear
2:35 AM 35.6 °F 29.9 °F 32.0 °F 87% 30.00 in 10.0 mi West 6.9 mph - N/A   Clear
2:55 AM 35.6 °F 29.2 °F 32.0 °F 87% 30.00 in 10.0 mi West 8.1 mph - N/A   Clear
3:15 AM 35.6 °F 29.9 °F 32.0 °F 87% 30.00 in 10.0 mi West 6.9 mph - N/A   Clear
3:35 AM 35.6 °F 30.7 °F 32.0 °F 87% 30.01 in 10.0 mi West 5.8 mph - N/A   Clear
3:55 AM 35.6 °F 29.2 °F 32.0 °F 87% 30.01 in 10.0 mi West 8.1 mph - N/A   Clear
4:15 AM 35.6 °F 30.7 °F 30.2 °F 81% 30.02 in 10.0 mi West 5.8 mph - N/A   Clear
4:35 AM 35.6 °F 29.2 °F 30.2 °F 81% 30.03 in 10.0 mi West 8.1 mph - N/A   Clear
4:55 AM 35.6 °F 29.9 °F 30.2 °F 81% 30.03 in 10.0 mi West 6.9 mph - N/A   Clear
5:15 AM 35.6 °F 29.9 °F 30.2 °F 81% 30.04 in 10.0 mi West 6.9 mph - N/A   Clear
5:35 AM 35.6 °F 30.7 °F 30.2 °F 81% 30.04 in 10.0 mi West 5.8 mph - N/A   Clear
5:55 AM 33.8 °F 28.6 °F 30.2 °F 87% 30.05 in 10.0 mi West 5.8 mph - N/A   Clear
6:15 AM 33.8 °F 27.7 °F 30.2 °F 87% 30.06 in 10.0 mi West 6.9 mph - N/A   Clear
6:35 AM 33.8 °F 27.7 °F 30.2 °F 87% 30.07 in 10.0 mi West 6.9 mph - N/A   Clear
6:55 AM 35.6 °F 29.2 °F 30.2 °F 81% 30.08 in 10.0 mi West 8.1 mph - N/A   Clear
7:15 AM 35.6 °F 30.7 °F 30.2 °F 81% 30.08 in 10.0 mi West 5.8 mph - N/A   Clear
7:35 AM 33.8 °F 29.6 °F 30.2 °F 87% 30.09 in 10.0 mi WNW 4.6 mph - N/A   Clear
7:55 AM 35.6 °F - 30.2 °F 81% 30.09 in 10.0 mi Calm Calm - N/A   Clear
8:15 AM 37.4 °F 34.9 °F 33.8 °F 87% 30.10 in 10.0 mi WNW 3.5 mph - N/A   Clear
8:35 AM 39.2 °F 35.9 °F 33.8 °F 81% 30.11 in 10.0 mi West 4.6 mph - N/A   Clear
8:55 AM 39.2 °F 35.0 °F 33.8 °F 81% 30.12 in 10.0 mi WNW 5.8 mph - N/A   Clear
9:15 AM 42.8 °F 39.3 °F 33.8 °F 70% 30.12 in 10.0 mi WNW 5.8 mph - N/A   Clear
9:35 AM 44.6 °F 43.1 °F 35.6 °F 71% 30.13 in 10.0 mi WNW 3.5 mph - N/A   Clear
9:55 AM 46.4 °F 45.2 °F 35.6 °F 66% 30.13 in 10.0 mi WSW 3.5 mph - N/A   Clear
10:15 AM 48.2 °F - 37.4 °F 66% 30.13 in 10.0 mi West 5.8 mph - N/A   Clear
10:35 AM 48.2 °F - 37.4 °F 66% 30.13 in 10.0 mi West 5.8 mph - N/A   Clear
10:55 AM 51.8 °F - 37.4 °F 58% 30.13 in 10.0 mi WNW 6.9 mph - N/A   Clear
11:15 AM 51.8 °F - 37.4 °F 58% 30.14 in 10.0 mi West 8.1 mph - N/A   Clear
11:35 AM 53.6 °F - 37.4 °F 54% 30.13 in 10.0 mi WNW 10.4 mph - N/A   Clear
11:55 AM 53.6 °F - 35.6 °F 51% 30.13 in 10.0 mi West 10.4 mph - N/A   Clear
12:15 PM 55.4 °F - 37.4 °F 51% 30.12 in 10.0 mi WNW 11.5 mph - N/A   Clear
12:35 PM 55.4 °F - 35.6 °F 47% 30.12 in 10.0 mi WNW 9.2 mph 16.1 mph N/A   Clear
12:55 PM 57.2 °F - 35.6 °F 44% 30.11 in 10.0 mi WNW 12.7 mph 18.4 mph N/A   Clear
1:15 PM 57.2 °F - 35.6 °F 44% 30.11 in 10.0 mi WNW 12.7 mph 18.4 mph N/A   Clear
1:35 PM 57.2 °F - 35.6 °F 44% 30.11 in 10.0 mi NW 11.5 mph - N/A   Clear
1:55 PM 59.0 °F - 35.6 °F 42% 30.10 in 10.0 mi West 10.4 mph 17.3 mph N/A   Clear
2:15 PM 59.0 °F - 35.6 °F 42% 30.10 in 10.0 mi WNW 12.7 mph - N/A   Clear
2:35 PM 59.0 °F - 33.8 °F 39% 30.10 in 10.0 mi WNW 10.4 mph 16.1 mph N/A   Clear
2:55 PM 59.0 °F - 33.8 °F 39% 30.10 in 10.0 mi WNW 9.2 mph - N/A   Clear
3:15 PM 60.8 °F - 35.6 °F 39% 30.10 in 10.0 mi West 10.4 mph - N/A   Clear
3:35 PM 60.8 °F - 33.8 °F 36% 30.10 in 10.0 mi WNW 8.1 mph - N/A   Clear
3:55 PM 60.8 °F - 33.8 °F 36% 30.10 in 10.0 mi West 5.8 mph - N/A   Clear
4:15 PM 60.8 °F - 33.8 °F 36% 30.10 in 10.0 mi West 8.1 mph - N/A   Clear
4:35 PM 60.8 °F - 33.8 °F 36% 30.10 in 10.0 mi WNW 8.1 mph - N/A   Clear
4:55 PM 60.8 °F - 32.0 °F 34% 30.10 in 10.0 mi West 9.2 mph - N/A   Clear
5:15 PM 59.0 °F - 32.0 °F 36% 30.09 in 10.0 mi West 5.8 mph - N/A   Clear
5:35 PM 59.0 °F - 33.8 °F 39% 30.09 in 10.0 mi West 3.5 mph - N/A   Clear
5:55 PM 55.4 °F - 33.8 °F 44% 30.10 in 10.0 mi Calm Calm - N/A   Clear
6:15 PM 53.6 °F - 32.0 °F 44% 30.10 in 10.0 mi West 3.5 mph - N/A   Clear
6:35 PM 53.6 °F - 33.8 °F 47% 30.10 in 10.0 mi Calm Calm - N/A   Clear
6:55 PM 48.2 °F - 35.6 °F 62% 30.11 in 10.0 mi Calm Calm - N/A   Clear
7:15 PM 46.4 °F - 35.6 °F 66% 30.11 in 10.0 mi Calm Calm - N/A   Clear
7:35 PM 44.6 °F - 35.6 °F 71% 30.11 in 10.0 mi Calm Calm - N/A   Clear
7:55 PM 41.0 °F 39.0 °F 35.6 °F 81% 30.12 in 10.0 mi SSW 3.5 mph - N/A   Clear
8:15 PM 42.8 °F 41.1 °F 35.6 °F 76% 30.12 in 10.0 mi SW 3.5 mph - N/A   Clear
8:35 PM 42.8 °F - 35.6 °F 76% 30.12 in 10.0 mi Calm Calm - N/A   Clear
8:55 PM 42.8 °F - 35.6 °F 76% 30.12 in 10.0 mi Calm Calm - N/A   Clear
9:15 PM 42.8 °F - 35.6 °F 76% 30.12 in 10.0 mi Calm Calm - N/A   Clear
9:35 PM 41.0 °F - 35.6 °F 81% 30.11 in 10.0 mi Calm Calm - N/A   Clear
9:55 PM 39.2 °F - 35.6 °F 87% 30.11 in 10.0 mi Calm Calm - N/A   Clear
10:15 PM 37.4 °F - 35.6 °F 93% 30.12 in 10.0 mi Calm Calm - N/A   Clear
10:35 PM 37.4 °F - 35.6 °F 93% 30.12 in 10.0 mi Calm Calm - N/A   Clear
10:55 PM 37.4 °F - 35.6 °F 93% 30.12 in 10.0 mi Calm Calm - N/A   Clear
11:15 PM 37.4 °F - 33.8 °F 87% 30.12 in 10.0 mi Calm Calm - N/A   Clear
11:35 PM 37.4 °F - 33.8 °F 87% 30.11 in 10.0 mi Calm Calm - N/A   Clear
11:55 PM 37.4 °F - 33.8 °F 87% 30.10 in 10.0 mi Calm Calm - N/A   Clear